San Francisco, CA

8:55 AM PDT on May 23, 2017 (GMT -0700)
San Francisco International

Weather History for KSFO - March, 2013

Change the Weather History Date:

Tuesday, March 5, 2013

  Actual Average Record
Temperature  
Mean Temperature 50 °F 54 °F  
Max Temperature 56 °F 61 °F 76 °F (1959)
Min Temperature 43 °F 47 °F 35 °F (1955)
Degree Days  
Heating Degree Days 15 11  
Month to date heating degree days 54 55  
Since 1 July heating degree days 1938 1861  
Cooling Degree Days 0 0  
Month to date cooling degree days 0 0  
Year to date cooling degree days 0 0  
Moisture  
Dew Point 40 °F    
Average Humidity 69    
Maximum Humidity 83    
Minimum Humidity 55    
Precipitation  
Precipitation 0.14 in 0.11 in 1.45 in (2016)
Month to date precipitation 0.14 0.61  
Year to date precipitation 1.01 8.86  
Since 1 July precipitation 12.01  
Sea Level Pressure  
Sea Level Pressure 29.99 in    
Wind  
Wind Speed 14 mph (South)    
Max Wind Speed 33 mph    
Max Gust Speed 43 mph    
Visibility 10 miles    
Events Rain    
T = Trace of Precipitation, MM = Missing Value Source: NWS Daily Summary

Daily Weather History Graph

Daily Weather History Graph

Search for Another Location

Airport or City:

Trip Planner

Search our weather history database for the weather conditions in past years. The results will help you decide how hot, cold, wet, or windy it might be!

Date:

Astronomy

Mar. 05, 2013 Rise Set
Actual Time 6:34 AM PST 6:07 PM PST
Civil Twilight 6:08 AM PST 6:33 PM PST
Nautical Twilight 5:38 AM PST 7:04 PM PST
Astronomical Twilight 5:07 AM PST 7:34 PM PST
Moon 1:47 AM PST (3/5) 11:57 AM PST (3/5)
Length of Visible Light 12h 25m
Length of Day
11h 32m
Last Quarter, 39% of the Moon is Illuminated
Mar 5
Last Quarter
Mar 11
New
Mar 19
First Quarter
Mar 27
Full
Apr 2
Last Quarter

Hourly Weather History & Observations

Time (PST) Temp. Windchill Dew Point Humidity Pressure Visibility Wind Dir Wind Speed Gust Speed Precip Events Conditions
12:56 AM 45.0 °F - 39.0 °F 80% 30.07 in 10.0 mi Calm Calm - N/A   Scattered Clouds
1:42 AM 44.6 °F 41.4 °F 37.4 °F 76% 30.08 in 10.0 mi West 5.8 mph - N/A   Mostly Cloudy
1:56 AM 44.6 °F 42.2 °F 39.2 °F 81% 30.08 in 10.0 mi West 4.6 mph - N/A   Mostly Cloudy
2:56 AM 46.0 °F 42.5 °F 37.9 °F 73% 30.08 in 10.0 mi West 6.9 mph - N/A   Scattered Clouds
3:56 AM 46.0 °F 43.9 °F 37.9 °F 73% 30.07 in 10.0 mi South 4.6 mph - N/A   Scattered Clouds
4:56 AM 45.0 °F - 37.9 °F 76% 30.08 in 10.0 mi Calm Calm - N/A   Scattered Clouds
5:56 AM 44.1 °F 40.1 °F 37.9 °F 79% 30.07 in 10.0 mi SE 6.9 mph - N/A   Scattered Clouds
6:56 AM 43.0 °F 39.5 °F 37.0 °F 80% 30.08 in 10.0 mi SSW 5.8 mph - N/A   Mostly Cloudy
7:56 AM 46.9 °F - 37.9 °F 71% 30.07 in 10.0 mi SSE 6.9 mph - N/A   Mostly Cloudy
8:56 AM 50.0 °F - 37.9 °F 63% 30.06 in 10.0 mi South 9.2 mph - N/A   Mostly Cloudy
9:56 AM 52.0 °F - 37.9 °F 59% 30.05 in 10.0 mi SW 9.2 mph - N/A   Mostly Cloudy
10:56 AM 54.0 °F - 39.9 °F 59% 30.05 in 10.0 mi SW 23.0 mph 27.6 mph N/A   Mostly Cloudy
11:56 AM 54.0 °F - 39.9 °F 59% 30.04 in 10.0 mi SW 24.2 mph - N/A   Mostly Cloudy
12:56 PM 54.0 °F - 39.0 °F 57% 30.01 in 10.0 mi South 17.3 mph 27.6 mph N/A   Mostly Cloudy
1:56 PM 55.0 °F - 39.9 °F 57% 29.99 in 10.0 mi South 18.4 mph 27.6 mph N/A   Mostly Cloudy
2:56 PM 55.9 °F - 39.9 °F 55% 29.97 in 10.0 mi South 17.3 mph 25.3 mph N/A   Mostly Cloudy
3:56 PM 55.9 °F - 39.9 °F 55% 29.95 in 10.0 mi South 16.1 mph 26.5 mph N/A   Mostly Cloudy
4:56 PM 55.9 °F - 39.9 °F 55% 29.92 in 10.0 mi South 19.6 mph 29.9 mph N/A   Mostly Cloudy
5:56 PM 54.0 °F - 39.9 °F 59% 29.90 in 10.0 mi South 16.1 mph 26.5 mph N/A   Mostly Cloudy
6:56 PM 53.1 °F - 39.9 °F 61% 29.91 in 10.0 mi South 11.5 mph - N/A   Mostly Cloudy
7:56 PM 53.1 °F - 41.0 °F 64% 29.87 in 10.0 mi SE 19.6 mph - N/A   Mostly Cloudy
8:56 PM 53.1 °F - 43.0 °F 69% 29.86 in 9.0 mi South 23.0 mph 28.8 mph 0.01 in Rain Light Rain
9:56 PM 51.1 °F - 45.0 °F 80% 29.85 in 8.0 mi SSE 16.1 mph 28.8 mph 0.12 in Rain Rain
10:56 PM 51.1 °F - 44.1 °F 77% 29.85 in 8.0 mi South 24.2 mph 36.8 mph 0.01 in Rain Light Rain
11:56 PM 51.1 °F - 45.0 °F 80% 29.86 in 4.0 mi South 26.5 mph 39.1 mph 0.00 in   Haze